Tracking 18980 objects as of 18-Feb-2018
HD Live streaming from Space Station
objects crossing your sky now

UNISAT 3

Track UNISAT 3 now!
10-day predictions
UNISAT 3 is classified as:


NORAD ID: 28373
Int'l Code: 2004-025H
Perigee: 698.7 km
Apogee: 796.6 km
Inclination: 98.4 °
Period: 99.6 minutes
Semi major axis: 7118 km
RCS: 0.116 m2 (medium)
Launch date: June 29, 2004
Source: Italy (IT)
Launch site: TYURATAM MISSILE AND SPACE COMPLEX (TTMTR)

Unisat 3 is an Italian, scientific microsatellite (12 kg) designed to test solar cells in the space environment.
aabbcc
Your satellite tracking list
Your tracking list is empty




NASA's NSSDC Master Catalog

Two Line Element Set (TLE):
1 28373U 04025H   18048.81682592  .00000061  00000-0  29487-4 0  9997
2 28373  98.3641 351.7970 0068777 183.6866 176.3828 14.45458900719384
Source of the keplerian elements: AFSPC